User: anonymous   Login
Location: Asar Burnu
(36.5203°N, 30.5523°E)
Time: 10:36:52
(UTC+00:00)
Language:

Okean O Rocket - Orbit

View from above orbital plane
View from above orbital plane
View from above satellite
View from above satellite

Ground track
Ground track

The orbit data is extracted from the following two-line orbital elements,

1 25861U 99039B   24276.57229137  .00003412  00000-0  45194-3 0  9995
2 25861  98.0767 323.2970 0015914 147.8533 212.3652 14.80481235359552
Epoch (UTC): 02 October 2024 13:44:05
Eccentricity: 0.0015914
inclination: 98.0767°
perigee height: 616 km
apogee height: 639 km
right ascension of ascending node: 323.2970°
argument of perigee: 147.8533°
revolutions per day: 14.80481235
mean anomaly at epoch: 212.3652°
orbit number at epoch: 35955

The dashed part of the orbit path shows where the satellite is in the earth's shadow,  

DLR